Flag for Israel Weather past 2 weeks in Rehovot, Israel

Now
82 °F

Sunny.


Feels Like: 85 °F
Forecast: 73 / 86 °F
Wind: 7 mph from Northwest

Location: Ben Gurion International Airport

Current Time: Jul 5, 2015 at 10:48:29 AM

Latest Report: Jul 5, 2015 at 10:20 AM


Visibility: 10 mi

Pressure: 29.92 "Hg

Humidity: 58%

Dew point: 66 °F

Location of RehovotLocation

Historic Weather in Rehovot — Graph

°F

Rehovot temperature yesterday

Maximum temperature yesterday: 86 °F (at 11:50 AM)
Minimum temperature yesterday: 72 °F (at 3:20 AM)
Average temperature yesterday: 79 °F

Past Weeks' High & Low Weather Summary

 TemperatureHumidityPressure
High91 °F (Jun 27, 1:20 PM)83% (Jun 27, 12:50 AM)29.98 "Hg (Jun 27, 12:50 AM)
Low68 °F (Jun 22, 6:20 AM)21% (Jun 27, 6:50 PM)29.59 "Hg (Jun 27, 9:20 PM)
Average78 °F63%29.86 "Hg
* Reported Jun 20 9:20 AM — Jul 5 9:50 AM, Rehovot, Weather by CustomWeather, © 2015

Note: Actual official high and low records may vary slightly from our data, if they occured in-between our weather recording intervals... More about our weather records

Advertising

Rehovot weather history for previous 24 hours

 ConditionsComfort  
Time TempWeatherWind HumidityBarometerVisibility
9:50 AM
Sun, Jul 5
82 °FSunny.5 mph58%29.92 "Hg10 mi
9:20 AM81 °FSunny.2 mph62%29.92 "Hg10 mi
8:50 AM79 °FSunny.1 mph61%29.92 "Hg10 mi
8:20 AM77 °FSunny.2 mph69%29.92 "Hg10 mi
7:50 AM75 °FSunny.2 mph69%29.92 "Hg10 mi
7:20 AM73 °FSunny.2 mph65%29.92 "Hg10 mi
6:50 AM72 °FClear.2 mph69%29.92 "Hg6 mi
6:20 AM70 °FClear.2 mph73%29.89 "Hg6 mi
5:50 AM68 °FPassing clouds.1 mph78%29.89 "Hg6 mi
5:20 AM68 °FClear.2 mph83%29.89 "Hg10 mi
4:50 AM68 °FClear.5 mph83%29.89 "Hg10 mi
4:20 AM70 °FClear.3 mph78%29.89 "Hg10 mi
3:50 AM70 °FClear.1 mph83%29.89 "Hg10 mi
3:20 AM72 °FClear.3 mph78%29.86 "Hg10 mi
2:50 AM72 °FClear.1 mph78%29.86 "Hg10 mi
2:20 AM73 °FClear.1 mph78%29.89 "Hg10 mi
1:50 AM73 °FClear.3 mph78%29.89 "Hg10 mi
1:20 AM73 °FClear.2 mph83%29.89 "Hg10 mi
12:50 AM73 °FClear.5 mph83%29.89 "Hg10 mi
12:20 AM75 °FClear.5 mph78%29.89 "Hg10 mi
11:50 PM
Sat, Jul 4
75 °FClear.5 mph78%29.89 "Hg10 mi
11:20 PM75 °FClear.5 mph78%29.89 "Hg10 mi
10:50 PM75 °FClear.6 mph78%29.89 "Hg10 mi
10:20 PM77 °FClear.6 mph74%29.89 "Hg10 mi
9:50 PM77 °FClear.7 mph74%29.89 "Hg10 mi
9:20 PM77 °FClear.7 mph74%29.89 "Hg10 mi
8:50 PM77 °FClear.7 mph74%29.89 "Hg10 mi
8:20 PM79 °FSunny.7 mph65%29.89 "Hg10 mi
7:50 PM79 °FSunny.9 mph65%29.89 "Hg10 mi
7:20 PM81 °FSunny.9 mph62%29.89 "Hg10 mi
6:50 PM82 °FSunny.9 mph58%29.89 "Hg10 mi
6:20 PM82 °FSunny.9 mph58%29.86 "Hg10 mi
5:50 PM84 °FSunny.10 mph51%29.86 "Hg10 mi
5:20 PM84 °FSunny.9 mph48%29.86 "Hg10 mi
4:50 PM84 °FPassing clouds.9 mph51%29.86 "HgN/A
4:20 PM84 °FSunny.10 mph51%29.89 "Hg10 mi
3:50 PM84 °FSunny.13 mph51%29.89 "Hg10 mi
3:20 PM84 °FSunny.14 mph51%29.89 "Hg10 mi
2:50 PM84 °FSunny.13 mph51%29.89 "Hg10 mi
2:20 PM84 °FPassing clouds.12 mph51%29.89 "HgN/A
1:50 PM84 °FPassing clouds.12 mph51%29.89 "HgN/A
1:20 PM84 °FPassing clouds.13 mph51%29.89 "HgN/A
12:50 PM84 °FPassing clouds.10 mph51%29.89 "HgN/A
12:20 PM84 °FPassing clouds.10 mph51%29.89 "HgN/A
11:50 AM86 °FPassing clouds.7 mph49%29.92 "HgN/A
11:20 AM84 °FPassing clouds.5 mph48%29.92 "HgN/A
10:50 AM82 °FPassing clouds.6 mph55%29.92 "HgN/A
10:20 AM82 °FPassing clouds.7 mph55%29.92 "HgN/A
Weather by CustomWeather, © 2015

See weather overviewHow to use our weather pages